Tobias Bolanos Internatio, Costa Rica

4:23 PM CST on September 24, 2017 (GMT -0600)
Tobias Bolanos International

Weather History for MRPV - April, 2014

Change the Weather History Date:

Sunday, April 27, 2014

  Actual Average Record
Temperature  
Mean Temperature 74 °F -  
Max Temperature 81 °F 80 °F 87 °F (2005)
Min Temperature 68 °F 69 °F 65 °F (2015)
Cooling Degree Days 10    
Growing Degree Days 24 (Base 50)    
Moisture  
Dew Point 64 °F    
Average Humidity 64    
Maximum Humidity 73    
Minimum Humidity 48    
Precipitation  
Precipitation 0.00 in - - ()
Sea Level Pressure  
Sea Level Pressure 29.94 in    
Wind  
Wind Speed 7 mph ()    
Max Wind Speed 12 mph    
Max Gust Speed -    
Visibility 6.1 miles    
Events Rain , Thunderstorm    
Averages and records for this station are not official NWS values.
T = Trace of Precipitation, MM = Missing Value Source: Averaged Metar Reports

Daily Weather History Graph

Daily Weather History Graph

Search for Another Location

Airport or City:

Trip Planner

Search our weather history database for the weather conditions in past years. The results will help you decide how hot, cold, wet, or windy it might be!

Date:

Astronomy

Apr. 27, 2014 Rise Set
Actual Time 5:20 AM CST 5:47 PM CST
Civil Twilight 4:59 AM CST 6:09 PM CST
Nautical Twilight 4:33 AM CST 6:34 PM CST
Astronomical Twilight 4:08 AM CST 7:00 PM CST
Moon 3:59 AM CST (4/27) 4:35 PM CST (4/27)
Length of Visible Light 13h 10m
Length of Day
12h 26m
Waning Crescent, 3% of the Moon is Illuminated
Apr 27
Waning Crescent
Apr 29
New
May 6
First Quarter
May 14
Full
May 21
Last Quarter

Hourly Weather History & Observations

Time (CST) Temp. Heat Index Dew Point Humidity Pressure Visibility Wind Dir Wind Speed Gust Speed Precip Events Conditions
6:00 AM 71 °F - 63 °F 70% 29.86 in 6 mi ESE 8.1 mph - -   Overcast
6:00 AM 71.6 °F - 62.6 °F 73% 29.99 in 6.2 mi ESE 8.1 mph - N/A   Mostly Cloudy
7:00 AM 71.6 °F - 62.6 °F 73% 30.03 in 6.2 mi East 8.1 mph - N/A   Mostly Cloudy
7:43 AM 75.2 °F - 64.4 °F 69% 29.96 in 6.2 mi East 11.5 mph - N/A Rain Rain
8:00 AM 75.2 °F - 64.4 °F 69% 30.03 in 6.2 mi East 10.4 mph - N/A   Mostly Cloudy
9:00 AM 78 °F - 63 °F 51% 29.85 in 6 mi SSE 4.6 mph - -   Scattered Clouds
9:00 AM 78.8 °F - 62.6 °F 57% 30.03 in 6.2 mi SSE 4.6 mph - N/A   Mostly Cloudy
10:00 AM 80.6 °F 82.3 °F 64.4 °F 58% 30.02 in 6.2 mi North 3.5 mph - N/A   Mostly Cloudy
11:00 AM 80.6 °F 82.3 °F 64.4 °F 58% 30.00 in 6.2 mi WSW 5.8 mph - N/A   Scattered Clouds
11:35 AM 80.6 °F 82.3 °F 64.4 °F 58% 30.00 in 6.2 mi ENE 5.8 mph - N/A Thunderstorm Scattered Clouds
12:00 PM 81 °F - 64 °F 48% 29.80 in 6 mi East 10.4 mph - -   Partly Cloudy
12:00 PM 80.6 °F 82.3 °F 64.4 °F 58% 29.99 in 6.2 mi East 10.4 mph - N/A   Scattered Clouds
1:00 PM 78.8 °F - 64.4 °F 61% 29.96 in 6.2 mi ESE 4.6 mph - N/A   Mostly Cloudy
2:00 PM 75.2 °F - 66.2 °F 73% 29.96 in 6.2 mi ENE 6.9 mph - N/A   Scattered Clouds
3:00 PM 74 °F - 64 °F 63% 29.76 in 6 mi East 8.1 mph - -   Clear
3:00 PM 73.4 °F - 64.4 °F 73% 29.92 in 6.2 mi East 8.1 mph - N/A   Mostly Cloudy
4:00 PM 75.2 °F - 64.4 °F 69% 29.92 in 6.2 mi East 10.4 mph - N/A   Mostly Cloudy
5:00 PM 73.4 °F - 62.6 °F 69% 29.92 in 6.2 mi ESE 9.2 mph - N/A   Scattered Clouds
6:00 PM 73 °F - 63 °F 64% 29.78 in 6 mi ESE 8.1 mph - -   Scattered Clouds
6:00 PM 73.4 °F - 62.6 °F 69% 29.94 in 6.2 mi ESE 8.1 mph - N/A   Scattered Clouds